Lid_Strength_Index
-1 0 0 -0 1 1 1 1 -1 0 -0 -0 -0 -0 -0 0 0 -0 1 0 0 1
-0 -0 -0 -1 -0 1 -0 1 1 0 0 -0 -0 -0 -0 1 0 0 0 0 0 1
-0 -0 -1 -0 0 0 0 1 1 0 0 0 0 0 0 1 1 1 1 1 0 0
-0 -0 -1 -0 -0 0 0 1 1 0 0 0 0 0 1 1 2 3 2 2 2 1
-0 -0 -0 -0 0 0 1 1 1 1 1 1 1 1 2 3 3 3 3 3 3 3
0 0 -0 -0 -0 0 1 1 1 1 1 1 2 2 2 2 3 3 3 3 3 3
0 0 0 -0 0 1 1 1 1 1 1 1 2 3 2 3 2 3 3 2 2 2
-0 -0 -0 0 1 1 1 1 1 1 2 2 2 3 2 2 3 3 3 2 2 1
0 0 0 1 1 1 1 1 2 3 3 3 3 5 6 4 3 3 3 3 2 2
0 1 1 1 2 2 2 2 4 4 4 4 4 6 7 6 4 4 4 4 4 3
1 2 2 2 1 1 2 4 4 5 4 4 4 7 8 7 5 4 4 4 4 4
2 2 3 2 2 2 4 4 5 5 5 5 4 7 7 7 5 5 4 4 4 5
2 2 2 3 3 3 5 5 5 5 5 6 5 6 8 7 5 5 5 4 5 7
2 2 3 4 4 5 5 6 6 6 5 4 4 4 8 8 6 6 7 8 9 9